Showing default

QIANFAN-20, 61553

Orbit data source: Space-Track

QIANFAN-20, 61553 is a Chinese payload satellite in LEO that was launched on Tue, 15 Oct 2024 UTC via a CHANG ZHENG 6A launch vehicle from the Taiyaun Space Center, China (TSC). Payloads include a variety of satellites, spacecraft, and rockets equipped with specific instruments for various scientific and technological missions. These include communications satellites like Starlink; space stations such as the ISS; scientific satellites like the Hubble; Earth observation satellites from companies like Planet Labs, Umbra, and HawkEye 360; GPS; miniature CubeSats for education and research; and military/defense satellites.

Loading next visibility...
QIANFAN-20 details
Identifier
61553, 2024-185B
Orbit
LEO
Last TLE update9 hours ago
Origin
Flag of CNYUANX (CN / PRC)
ManufacturerGESIH/SECM
MissionOperational Commercial Communications
Bus & MotorQIANFAN, Unknown motor
Mass300 kg wet, ~300 kg dry
Launch date (UTC)
2024-10-15 (4 months ago)
Launch vehicle
CHANG ZHENG 6A
Launch site
Taiyaun Space Center, China (TSC)
Object type
Payload
Rocket body
Debris
Shape & HBRBox + 1 Pan, 10 m
Radar Cross Section13.200 m², Large (>1 m²)

Expand to show TLE details & history

TLE from 9 hours ago
0 QIANFAN-20
1 61553U 24185B   25047.13621843  .00000706  00000-0  40418-3 0  9999
2 61553  88.9870 112.2453 0005742 194.9712 165.1302 14.08460769 27317
Epoch: 2025-02-16T03:16Z
Definitive object data (Epoch: 2025-02-16T03:16:09.272Z)
Latitude-0.00007°
Longitude-83.16694°
Altitude871.701 km
Speed7.414 km/s
True Right ascension07h 28m 58s
True Declination0° 00' 00"
Sunlit
Object was in full shadow at TLE epoch
Visualization TLE readout
Latitude24.61305°
Longitude96.32789°
Altitude864.479 km
Speed7.424 km/s
Apparent Right ascension22h 27m 48s
Apparent Declination-9° 57' 01"
Sunlit
Object is in daylight
Visualization observer readout
Local Sidereal Time15:18:21
Azimuth86.587° E
Elevation-19.651°
Doppler factor1
Orbital elements
Apogee altitude865.769 km
Perigee altitude857.455 km
Semi-major axis7,239.749 km
Eccentricity0.0005742
Inclination88.987°
RAAN112.2453°
Arg. of periapsis194.9712°
True anomaly165.14707°
Mean anomaly165.1302°
Eccentric anomaly165.13864°
Mean motion3.52337 °/min
BSTAR0.00040418
Orbital period102.17 mins
Loading maneuver chart data...
Loading historical data...
Loading historical data...
Loading historical data...
Loading historical data...
Loading historical data...
Loading historical data...
Loading historical data...

QIANFAN-20 Visibility forecast

Observer location: undefined°, undefined

Span
Click to sort rows by Start time (UTC) header in descending order
Start Az.
Max El. time (UTC)
Max El. Az.
Max El.
End time (UTC)
End Az.
9 mins2025-02-16 15:47:49.092Z24.214° NE2025-02-16 15:51:49.092Z80.495° E29.731°2025-02-16 15:56:49.092Z148.215° SSE
7 mins2025-02-16 17:30:49.092Z327.675° NNW2025-02-16 17:33:49.092Z285.026° WNW25.532°2025-02-16 17:37:49.092Z229.433° WSW
4 mins2025-02-17 03:18:49.092Z94.372° ESE2025-02-17 03:20:49.092Z69.249° E16.091°2025-02-17 03:22:49.092Z45.895° ENE
9 mins2025-02-17 04:57:49.092Z194.518° SSW2025-02-17 05:01:49.092Z260.069° W41.082°2025-02-17 05:06:49.092Z350.019° N
|